Location: Bothwell
(42.3833°S, 147.0000°E)
Time: 19:40:13
(UTC+11:00)

First-Move - Pass Details

Date: 25 September 2022
Orbit: 570 x 653 km, 97.7° (Epoch: 25 November)

Event Time Altitude Azimuth Distance (km) Brightness Sun altitude
Rises 18:28:09 0° 207° (SSW) 2,996 ? -4.1°
Enters shadow 19:24:01 -70° 85° (E) 12,605 ? -14.3°
Exits shadow 19:47:43 -30° 141° (SE) 7,549 ? -18.5°
